Date String (YYYY-MM-DD hh:mm:ss) UTC,Instrument flags,absolute air pressure of the measurement (hPa),sample flow rate (lpm),inlet stack bypass flow (lpm),air temperature of the measurement (°C),ambient temperature measured by the external sensor (°C),aerosol sample conditioner tube jacket temperature (°C),OPC LED temperature (°C),internal box temperature (°C),relative humidity of the measurement (%),span deviation,mass concentration of particles derived from Lorenz-Mie calculation of OPC scattering (μg/m³),mass concentration of particles derived from Lorenz-Mie calculation of OPC scattering (μg/m³),mass concentration of particles derived from Lorenz-Mie calculation of OPC scattering (μg/m³)
DateTimeUTC,F1_M11,P_M11,Q1_M11,Q2_M11,T1_M11,T2_M11,T3_M11,T4_M11,T5_M11,U1_M11,ZSPAN_M11,X2_M11,X0_M11,X1_M11
2024-05-14 03:00:00,SystemResetWarning,0826.6,4.99,000.00,024.3,023.2,000.0,032.5,026.1,028.7,0000.0,0004.30,0007.77,0003.78
2024-05-14 03:01:00,SystemResetWarning,0826.6,5.00,000.00,024.4,023.5,000.0,032.5,026.2,028.4,0000.0,0004.31,0008.37,0003.79
2024-05-14 03:02:00,SystemResetWarning,0826.6,5.00,000.00,024.4,023.7,000.0,032.5,026.3,027.7,0000.0,0004.30,0008.70,0003.79
2024-05-14 03:03:00,SystemResetWarning,0826.6,5.00,000.00,024.5,023.8,000.0,032.5,026.4,027.7,0000.0,0004.35,0008.79,0003.79
2024-05-14 03:04:00,SystemResetWarning,0826.6,5.00,000.00,024.6,024.0,000.0,032.5,026.5,027.7,0000.0,0004.40,0009.04,0003.80
2024-05-14 03:05:00,SystemResetWarning,0826.6,5.00,000.00,024.6,024.1,000.0,032.6,026.6,026.9,0000.0,0004.39,0009.02,0003.80
2024-05-14 03:06:00,SystemResetWarning,0826.6,5.00,000.00,024.7,024.2,000.0,032.6,026.6,026.2,0000.0,0004.44,0009.07,0003.80
2024-05-14 03:07:00,SystemResetWarning,0826.7,4.98,000.00,024.7,024.0,000.0,032.7,026.5,025.7,0000.0,0004.52,0009.65,0003.81
2024-05-14 03:08:00,SystemResetWarning,0826.6,5.01,000.00,024.5,022.1,000.0,032.8,025.5,025.6,0000.0,0004.53,0010.10,0003.80
2024-05-14 03:09:00,SystemResetWarning,0826.6,5.01,000.00,024.2,021.6,000.0,032.8,025.1,026.0,0000.0,0004.58,0010.78,0003.80
2024-05-14 03:10:00,SystemResetWarning,0826.7,5.01,000.00,024.1,021.9,000.0,032.7,025.2,025.8,0000.0,0004.59,0011.51,0003.78
2024-05-14 03:11:00,SystemResetWarning,0826.8,4.99,000.00,024.1,022.3,000.0,032.6,025.4,025.6,0000.0,0004.65,0012.49,0003.77
2024-05-14 03:12:00,SystemResetWarning,0826.8,5.00,000.00,024.1,022.6,000.0,032.5,025.6,025.4,0000.0,0004.69,0012.92,0003.75
2024-05-14 03:13:00,SystemResetWarning,0826.8,5.00,000.00,024.2,022.9,000.0,032.5,025.9,025.2,0000.0,0004.72,0013.95,0003.74
2024-05-14 03:14:00,SystemResetWarning,0826.9,5.00,000.00,024.2,023.2,000.0,032.5,026.0,025.1,0000.0,0004.72,0014.24,0003.73
2024-05-14 03:15:00,SystemResetWarning,0826.9,5.00,000.00,024.3,023.4,000.0,032.5,026.1,024.6,0000.0,0004.67,0014.84,0003.71
2024-05-14 03:16:00,SystemResetWarning,0827.0,4.99,000.00,024.4,023.6,000.0,032.5,026.3,023.1,0000.0,0004.67,0016.21,0003.68
2024-05-14 03:17:00,SystemResetWarning,0827.0,5.00,000.00,024.4,023.8,000.0,032.5,026.3,023.2,0000.0,0004.55,0016.12,0003.63
2024-05-14 03:18:00,SystemResetWarning,0826.9,5.00,000.00,024.5,023.9,000.0,032.5,026.4,024.0,0000.0,0004.42,0015.43,0003.56
2024-05-14 03:19:00,SystemResetWarning,0826.9,5.00,000.00,024.6,024.1,000.0,032.6,026.5,023.0,0000.0,0004.35,0015.11,0003.50
2024-05-14 03:20:00,SystemResetWarning,0826.8,5.00,000.00,024.6,024.2,000.0,032.6,026.6,022.5,0000.0,0004.21,0014.97,0003.42
2024-05-14 03:21:00,SystemResetWarning,0826.9,5.01,000.00,024.7,024.3,000.0,032.6,026.6,023.1,0000.0,0004.08,0014.14,0003.35
2024-05-14 03:22:00,SystemResetWarning,0827.0,5.01,000.00,024.8,024.3,000.0,032.7,026.6,023.1,0000.0,0003.93,0013.07,0003.28
2024-05-14 03:23:00,SystemResetWarning,0827.0,4.98,000.00,024.6,022.9,000.0,032.8,025.9,023.1,0000.0,0003.79,0012.57,0003.22
2024-05-14 03:24:00,SystemResetWarning,0826.9,5.01,000.00,024.3,021.4,000.0,032.8,025.2,022.9,0000.0,0003.67,0011.34,0003.15
2024-05-14 03:25:00,SystemResetWarning,0827.0,5.01,000.00,024.1,021.6,000.0,032.8,025.1,023.4,0000.0,0003.54,0010.93,0003.07
2024-05-14 03:26:00,SystemResetWarning,0827.0,4.99,000.00,024.1,022.0,000.0,032.6,025.3,023.3,0000.0,0003.40,0010.15,0002.93
2024-05-14 03:27:00,SystemResetWarning,0826.9,4.99,000.00,024.1,022.3,000.0,032.5,025.5,022.3,0000.0,0003.30,0008.82,0002.85
2024-05-14 03:28:00,SystemResetWarning,0826.9,5.01,000.00,024.1,022.7,000.0,032.5,025.7,023.1,0000.0,0003.27,0008.65,0002.81
2024-05-14 03:29:00,SystemResetWarning,0826.8,5.00,000.00,024.2,023.0,000.0,032.5,025.9,023.8,0000.0,0003.27,0008.67,0002.78
2024-05-14 03:30:00,SystemResetWarning,0826.5,5.00,000.00,024.2,023.2,000.0,032.5,026.0,024.4,0000.0,0003.23,0009.08,0002.77
2024-05-14 03:31:00,SystemResetWarning,0826.5,5.00,000.00,024.3,023.4,000.0,032.5,026.1,023.8,0000.0,0003.23,0008.69,0002.78
2024-05-14 03:32:00,SystemResetWarning,0826.6,5.01,000.00,024.3,023.6,000.0,032.5,026.2,022.6,0000.0,0003.21,0008.77,0002.78
2024-05-14 03:33:00,SystemResetWarning,0826.6,4.99,000.00,024.4,023.7,000.0,032.5,026.3,023.2,0000.0,0003.19,0008.87,0002.76
2024-05-14 03:34:00,SystemResetWarning,0826.5,4.99,000.00,024.5,023.9,000.0,032.5,026.3,022.9,0000.0,0003.17,0008.66,0002.74
2024-05-14 03:35:00,SystemResetWarning,0826.4,5.01,000.00,024.5,024.0,000.0,032.5,026.4,021.6,0000.0,0003.14,0007.98,0002.72
2024-05-14 03:36:00,SystemResetWarning,0826.2,5.00,000.00,024.6,024.1,000.0,032.6,026.5,021.0,0000.0,0003.11,0007.90,0002.69
2024-05-14 03:37:00,SystemResetWarning,0826.2,5.01,000.00,024.6,024.2,000.0,032.6,026.5,019.8,0000.0,0003.08,0007.59,0002.63
2024-05-14 03:38:00,SystemResetWarning,0826.3,5.00,000.00,024.7,024.3,000.0,032.6,026.6,019.4,0000.0,0002.99,0007.42,0002.53
2024-05-14 03:39:00,SystemResetWarning,0826.3,4.98,000.00,024.7,024.3,000.0,032.7,026.6,018.4,0000.0,0002.89,0008.42,0002.44
2024-05-14 03:40:00,SystemResetWarning,0826.4,5.00,000.00,024.8,024.4,000.0,032.7,026.7,017.7,0000.0,0002.71,0008.59,0002.33
2024-05-14 03:41:00,SystemResetWarning,0826.4,5.00,000.00,024.9,024.5,000.0,032.7,026.7,019.9,0000.0,0002.58,0007.82,0002.21
2024-05-14 03:42:00,SystemResetWarning,0826.2,4.99,000.00,024.8,023.5,000.0,032.8,026.2,019.5,0000.0,0002.47,0007.52,0002.12
2024-05-14 03:43:00,SystemResetWarning,0826.2,5.01,000.00,024.4,021.7,000.0,032.9,025.3,020.3,0000.0,0002.42,0006.94,0002.07
2024-05-14 03:44:00,SystemResetWarning,0826.1,5.01,000.00,024.2,021.6,000.0,032.9,025.1,021.2,0000.0,0002.35,0006.64,0002.02
2024-05-14 03:45:00,SystemResetWarning,0826.1,5.00,000.00,024.2,022.0,000.0,032.7,025.3,021.1,0000.0,0002.31,0006.30,0001.97
2024-05-14 03:46:00,SystemResetWarning,0826.2,4.98,000.00,024.2,022.3,000.0,032.6,025.5,019.9,0000.0,0002.29,0006.12,0001.92
2024-05-14 03:47:00,SystemResetWarning,0826.1,5.01,000.00,024.2,022.7,000.0,032.6,025.8,020.1,0000.0,0002.27,0006.09,0001.90
2024-05-14 03:48:00,SystemResetWarning,0826.1,5.02,000.00,024.3,023.0,000.0,032.6,026.0,019.4,0000.0,0002.29,0006.11,0001.93
2024-05-14 03:49:00,SystemResetWarning,0826.0,5.00,000.00,024.3,023.2,000.0,032.5,026.1,018.9,0000.0,0002.33,0005.67,0001.98
2024-05-14 03:50:00,SystemResetWarning,0825.9,5.00,000.00,024.4,023.5,000.0,032.5,026.2,018.5,0000.0,0002.37,0003.90,0002.03
2024-05-14 03:51:00,SystemResetWarning,0825.9,5.00,000.00,024.5,023.7,000.0,032.5,026.3,018.9,0000.0,0002.42,0003.89,0002.07
2024-05-14 03:52:00,SystemResetWarning,0825.9,5.00,000.00,024.5,023.8,000.0,032.6,026.4,018.9,0000.0,0002.47,0003.90,0002.12
2024-05-14 03:53:00,SystemResetWarning,0826.0,5.00,000.00,024.6,024.0,000.0,032.6,026.5,019.0,0000.0,0002.51,0003.91,0002.15
2024-05-14 03:54:00,SystemResetWarning,0825.9,5.00,000.00,024.7,024.1,000.0,032.6,026.5,019.1,0000.0,0002.51,0004.04,0002.17
2024-05-14 03:55:00,SystemResetWarning,0825.9,5.00,000.00,024.7,024.2,000.0,032.7,026.6,019.0,0000.0,0002.53,0004.79,0002.17
2024-05-14 03:56:00,SystemResetWarning,0825.9,5.00,000.00,024.8,024.3,000.0,032.7,026.6,019.0,0000.0,0002.54,0004.86,0002.19
2024-05-14 03:57:00,SystemResetWarning,0825.9,5.00,000.00,024.8,024.4,000.0,032.7,026.7,018.7,0000.0,0002.52,0004.72,0002.20
2024-05-14 03:58:00,SystemResetWarning,0825.9,5.00,000.00,024.9,024.5,000.0,032.8,026.7,019.2,0000.0,0002.51,0005.16,0002.19
2024-05-14 03:59:00,SystemResetWarning,0825.9,5.01,000.00,024.9,024.5,000.0,032.8,026.8,019.2,0000.0,0002.51,0005.80,0002.18
